Time,TemperatureF,DewpointF,PressureIn,WindDirection,WindDirectionDegrees,WindSpeedMPH,WindSpeedGustMPH,Humidity,HourlyPrecipIn,Conditions,Clouds,dailyrainin,SoftwareType,DateUTC
2013-03-27 00:06:00,27.5,22.0,30.42,West,261,0.0,0.0,80,0.00,,,0.00,weatherlink.com 1.10,2013-03-27 05:06:00,
2013-03-27 00:36:00,26.7,22.0,30.43,West,261,0.0,0.0,81,0.00,,,0.00,weatherlink.com 1.10,2013-03-27 05:36:00,
2013-03-27 00:51:00,26.3,22.0,30.43,West,261,0.0,0.0,82,0.00,,,0.00,weatherlink.com 1.10,2013-03-27 05:51:00,
2013-03-27 01:06:00,26.1,22.0,30.43,West,261,0.0,1.0,83,0.00,,,0.00,weatherlink.com 1.10,2013-03-27 06:06:00,
2013-03-27 01:21:00,26.0,22.0,30.43,West,261,0.0,1.0,84,0.00,,,0.00,weatherlink.com 1.10,2013-03-27 06:21:00,
2013-03-27 01:36:00,25.9,22.0,30.43,West,261,0.0,0.0,84,0.00,,,0.00,weatherlink.com 1.10,2013-03-27 06:36:00,
2013-03-27 01:51:00,26.0,22.0,30.44,West,261,0.0,0.0,85,0.00,,,0.00,weatherlink.com 1.10,2013-03-27 06:51:00,
2013-03-27 02:06:00,26.2,22.0,30.44,West,261,0.0,0.0,85,0.00,,,0.00,weatherlink.com 1.10,2013-03-27 07:06:00,
2013-03-27 02:36:00,26.6,23.0,30.44,West,261,1.0,1.0,85,0.00,,,0.00,weatherlink.com 1.10,2013-03-27 07:36:00,
2013-03-27 02:51:00,26.8,23.0,30.44,West,261,0.0,0.0,85,0.00,,,0.00,weatherlink.com 1.10,2013-03-27 07:51:00,
2013-03-27 03:06:00,26.8,23.0,30.44,West,261,0.0,0.0,85,0.00,,,0.00,weatherlink.com 1.10,2013-03-27 08:06:00,
2013-03-27 03:21:00,27.1,23.0,30.43,West,261,0.0,1.0,83,0.00,,,0.00,weatherlink.com 1.10,2013-03-27 08:21:00,
2013-03-27 03:36:00,27.2,22.0,30.44,West,261,0.0,0.0,82,0.00,,,0.00,weatherlink.com 1.10,2013-03-27 08:36:00,
2013-03-27 03:51:00,27.0,22.0,30.43,West,261,0.0,0.0,82,0.00,,,0.00,weatherlink.com 1.10,2013-03-27 08:51:00,
2013-03-27 04:06:00,26.5,22.0,30.43,West,261,0.0,0.0,83,0.00,,,0.00,weatherlink.com 1.10,2013-03-27 09:06:00,
2013-03-27 04:21:00,26.0,22.0,30.43,West,261,0.0,0.0,84,0.00,,,0.00,weatherlink.com 1.10,2013-03-27 09:21:00,
2013-03-27 04:36:00,25.3,21.0,30.43,West,261,0.0,0.0,84,0.00,,,0.00,weatherlink.com 1.10,2013-03-27 09:36:00,
2013-03-27 04:51:00,24.7,21.0,30.43,West,261,0.0,0.0,85,0.00,,,0.00,weatherlink.com 1.10,2013-03-27 09:51:00,
2013-03-27 05:06:00,24.2,21.0,30.43,West,261,0.0,0.0,86,0.00,,,0.00,weatherlink.com 1.10,2013-03-27 10:06:00,
2013-03-27 05:21:00,23.6,20.0,30.43,West,261,0.0,0.0,86,0.00,,,0.00,weatherlink.com 1.10,2013-03-27 10:21:00,
2013-03-27 05:36:00,23.2,20.0,30.44,West,261,0.0,0.0,87,0.00,,,0.00,weatherlink.com 1.10,2013-03-27 10:36:00,
2013-03-27 05:51:00,22.8,20.0,30.44,West,261,0.0,0.0,88,0.00,,,0.00,weatherlink.com 1.10,2013-03-27 10:51:00,
2013-03-27 06:07:00,22.6,20.0,30.44,West,261,0.0,0.0,88,0.00,,,0.00,weatherlink.com 1.10,2013-03-27 11:07:00,
2013-03-27 06:21:00,22.5,20.0,30.45,West,261,0.0,0.0,89,0.00,,,0.00,weatherlink.com 1.10,2013-03-27 11:21:00,
2013-03-27 06:37:00,22.3,20.0,30.45,West,261,0.0,0.0,89,0.00,,,0.00,weatherlink.com 1.10,2013-03-27 11:37:00,
2013-03-27 06:52:00,22.1,19.0,30.45,West,261,0.0,0.0,89,0.00,,,0.00,weatherlink.com 1.10,2013-03-27 11:52:00,
2013-03-27 07:07:00,22.3,20.0,30.45,West,261,0.0,0.0,89,0.00,,,0.00,weatherlink.com 1.10,2013-03-27 12:07:00,
2013-03-27 07:37:00,22.4,20.0,30.46,West,261,0.0,0.0,89,0.00,,,0.00,weatherlink.com 1.10,2013-03-27 12:37:00,
2013-03-27 07:52:00,22.9,20.0,30.46,West,261,0.0,0.0,90,0.00,,,0.00,weatherlink.com 1.10,2013-03-27 12:52:00,
2013-03-27 08:07:00,24.4,22.0,30.46,West,261,0.0,0.0,90,0.00,,,0.00,weatherlink.com 1.10,2013-03-27 13:07:00,
2013-03-27 08:37:00,27.0,23.0,30.46,West,261,0.0,0.0,84,0.00,,,0.00,weatherlink.com 1.10,2013-03-27 13:37:00,
2013-03-27 09:07:00,29.9,23.0,30.45,West,261,0.0,1.0,75,0.00,,,0.00,weatherlink.com 1.10,2013-03-27 14:07:00,
2013-03-27 09:22:00,31.4,23.0,30.45,SW,232,0.0,2.0,71,0.00,,,0.00,weatherlink.com 1.10,2013-03-27 14:22:00,
2013-03-27 09:37:00,32.6,23.0,30.46,SSW,201,0.0,2.0,69,0.00,,,0.00,weatherlink.com 1.10,2013-03-27 14:37:00,
2013-03-27 09:52:00,34.8,24.0,30.46,SSW,201,0.0,2.0,65,0.00,,,0.00,weatherlink.com 1.10,2013-03-27 14:52:00,
2013-03-27 10:07:00,36.1,22.0,30.46,WNW,292,0.0,2.0,57,0.00,,,0.00,weatherlink.com 1.10,2013-03-27 15:07:00,
2013-03-27 10:22:00,37.2,22.0,30.46,SSW,205,0.0,2.0,54,0.00,,,0.00,weatherlink.com 1.10,2013-03-27 15:22:00,
2013-03-27 10:37:00,37.6,20.0,30.46,West,259,1.0,5.0,50,0.00,,,0.00,weatherlink.com 1.10,2013-03-27 15:37:00,
2013-03-27 10:52:00,38.4,20.0,30.46,NW,312,0.0,4.0,48,0.00,,,0.00,weatherlink.com 1.10,2013-03-27 15:52:00,
2013-03-27 11:07:00,38.8,20.0,30.47,SSW,198,1.0,4.0,47,0.00,,,0.00,weatherlink.com 1.10,2013-03-27 16:07:00,
2013-03-27 11:22:00,39.3,20.0,30.47,SW,226,1.0,6.0,46,0.00,,,0.00,weatherlink.com 1.10,2013-03-27 16:22:00,
2013-03-27 11:37:00,39.8,19.0,30.47,West,267,2.0,5.0,44,0.00,,,0.00,weatherlink.com 1.10,2013-03-27 16:37:00,
2013-03-27 11:52:00,39.9,19.0,30.46,North,360,0.0,5.0,44,0.00,,,0.00,weatherlink.com 1.10,2013-03-27 16:52:00,
2013-03-27 12:07:00,40.7,20.0,30.46,South,171,4.0,5.0,43,0.00,,,0.00,weatherlink.com 1.10,2013-03-27 17:07:00,
2013-03-27 12:22:00,41.3,20.0,30.46,ENE,74,0.0,3.0,42,0.00,,,0.00,weatherlink.com 1.10,2013-03-27 17:22:00,
2013-03-27 12:37:00,41.3,20.0,30.46,South,172,0.0,6.0,42,0.00,,,0.00,weatherlink.com 1.10,2013-03-27 17:37:00,
2013-03-27 12:52:00,41.4,20.0,30.45,SW,224,0.0,5.0,42,0.00,,,0.00,weatherlink.com 1.10,2013-03-27 17:52:00,
2013-03-27 13:07:00,41.5,20.0,30.45,SE,130,0.0,5.0,42,0.00,,,0.00,weatherlink.com 1.10,2013-03-27 18:07:00,
2013-03-27 13:22:00,42.0,21.0,30.45,South,175,4.0,4.0,43,0.00,,,0.00,weatherlink.com 1.10,2013-03-27 18:22:00,
2013-03-27 13:37:00,42.2,21.0,30.45,SSE,167,4.0,8.0,43,0.00,,,0.00,weatherlink.com 1.10,2013-03-27 18:37:00,
2013-03-27 13:53:00,42.3,21.0,30.45,ESE,123,1.0,5.0,42,0.00,,,0.00,weatherlink.com 1.10,2013-03-27 18:53:00,
2013-03-27 14:07:00,42.1,20.0,30.44,South,188,4.0,7.0,42,0.00,,,0.00,weatherlink.com 1.10,2013-03-27 19:07:00,
2013-03-27 14:22:00,42.6,21.0,30.45,SSW,206,2.0,5.0,42,0.00,,,0.00,weatherlink.com 1.10,2013-03-27 19:22:00,
2013-03-27 14:38:00,42.9,20.0,30.44,WSW,254,2.0,6.0,40,0.00,,,0.00,weatherlink.com 1.10,2013-03-27 19:38:00,
2013-03-27 14:53:00,42.8,19.0,30.43,South,186,3.0,8.0,39,0.00,,,0.00,weatherlink.com 1.10,2013-03-27 19:53:00,
2013-03-27 15:08:00,43.1,20.0,30.43,South,175,0.0,6.0,39,0.00,,,0.00,weatherlink.com 1.10,2013-03-27 20:08:00,
2013-03-27 15:23:00,43.1,20.0,30.43,East,94,1.0,5.0,40,0.00,,,0.00,weatherlink.com 1.10,2013-03-27 20:23:00,
2013-03-27 15:53:00,42.7,19.0,30.42,SSE,152,0.0,5.0,39,0.00,,,0.00,weatherlink.com 1.10,2013-03-27 20:53:00,
2013-03-27 16:08:00,42.7,20.0,30.42,SW,216,1.0,6.0,40,0.00,,,0.00,weatherlink.com 1.10,2013-03-27 21:08:00,
2013-03-27 16:23:00,43.1,20.0,30.42,SW,221,0.0,6.0,40,0.00,,,0.00,weatherlink.com 1.10,2013-03-27 21:23:00,
2013-03-27 16:38:00,43.0,21.0,30.42,ESE,114,3.0,7.0,41,0.00,,,0.00,weatherlink.com 1.10,2013-03-27 21:38:00,
2013-03-27 16:53:00,43.1,20.0,30.41,West,275,4.0,4.0,40,0.00,,,0.00,weatherlink.com 1.10,2013-03-27 21:53:00,
2013-03-27 17:08:00,42.8,21.0,30.41,West,273,4.0,6.0,42,0.00,,,0.00,weatherlink.com 1.10,2013-03-27 22:08:00,
2013-03-27 17:23:00,42.4,21.0,30.41,SSW,197,7.0,7.0,43,0.00,,,0.00,weatherlink.com 1.10,2013-03-27 22:23:00,
2013-03-27 17:38:00,42.4,21.0,30.41,SSW,199,0.0,5.0,42,0.00,,,0.00,weatherlink.com 1.10,2013-03-27 22:38:00,
2013-03-27 17:53:00,42.5,21.0,30.41,South,181,1.0,6.0,42,0.00,,,0.00,weatherlink.com 1.10,2013-03-27 22:53:00,
2013-03-27 18:08:00,42.4,21.0,30.41,WNW,290,1.0,6.0,42,0.00,,,0.00,weatherlink.com 1.10,2013-03-27 23:08:00,
2013-03-27 18:23:00,41.8,21.0,30.41,SSW,205,3.0,7.0,44,0.00,,,0.00,weatherlink.com 1.10,2013-03-27 23:23:00,
2013-03-27 18:38:00,41.2,21.0,30.41,SSW,202,1.0,6.0,44,0.00,,,0.00,weatherlink.com 1.10,2013-03-27 23:38:00,
2013-03-27 18:53:00,41.1,21.0,30.41,SSW,211,0.0,4.0,44,0.00,,,0.00,weatherlink.com 1.10,2013-03-27 23:53:00,
2013-03-27 19:08:00,40.5,21.0,30.41,SW,219,3.0,5.0,45,0.00,,,0.00,weatherlink.com 1.10,2013-03-28 00:08:00,
2013-03-27 19:23:00,39.7,21.0,30.41,WSW,251,1.0,3.0,47,0.00,,,0.00,weatherlink.com 1.10,2013-03-28 00:23:00,
2013-03-27 19:38:00,39.1,21.0,30.42,SW,217,0.0,1.0,49,0.00,,,0.00,weatherlink.com 1.10,2013-03-28 00:38:00,
2013-03-27 19:53:00,38.4,21.0,30.42,SW,218,0.0,3.0,50,0.00,,,0.00,weatherlink.com 1.10,2013-03-28 00:53:00,
2013-03-27 20:08:00,37.8,21.0,30.42,SW,218,0.0,2.0,51,0.00,,,0.00,weatherlink.com 1.10,2013-03-28 01:08:00,
2013-03-27 20:23:00,37.3,21.0,30.42,SW,218,0.0,1.0,52,0.00,,,0.00,weatherlink.com 1.10,2013-03-28 01:23:00,
2013-03-27 20:38:00,36.8,21.0,30.42,SW,218,0.0,1.0,54,0.00,,,0.00,weatherlink.com 1.10,2013-03-28 01:38:00,
2013-03-27 20:53:00,36.2,21.0,30.43,SW,218,0.0,0.0,54,0.00,,,0.00,weatherlink.com 1.10,2013-03-28 01:53:00,
2013-03-27 21:08:00,35.6,21.0,30.43,SW,218,0.0,0.0,56,0.00,,,0.00,weatherlink.com 1.10,2013-03-28 02:08:00,
2013-03-27 21:23:00,35.2,21.0,30.44,SW,218,0.0,1.0,57,0.00,,,0.00,weatherlink.com 1.10,2013-03-28 02:23:00,
2013-03-27 21:38:00,34.6,21.0,30.44,SW,218,0.0,0.0,59,0.00,,,0.00,weatherlink.com 1.10,2013-03-28 02:38:00,
2013-03-27 21:53:00,33.5,22.0,30.45,SW,218,0.0,0.0,62,0.00,,,0.00,weatherlink.com 1.10,2013-03-28 02:53:00,
2013-03-27 22:08:00,32.7,22.0,30.45,SW,218,0.0,0.0,65,0.00,,,0.00,weatherlink.com 1.10,2013-03-28 03:08:00,
2013-03-27 22:23:00,31.8,22.0,30.45,SW,218,0.0,0.0,67,0.00,,,0.00,weatherlink.com 1.10,2013-03-28 03:23:00,
2013-03-27 22:38:00,31.2,22.0,30.45,SW,218,0.0,0.0,69,0.00,,,0.00,weatherlink.com 1.10,2013-03-28 03:38:00,
2013-03-27 22:53:00,30.6,22.0,30.45,SW,218,0.0,0.0,70,0.00,,,0.00,weatherlink.com 1.10,2013-03-28 03:53:00,
2013-03-27 23:08:00,30.1,22.0,30.46,SW,218,0.0,0.0,71,0.00,,,0.00,weatherlink.com 1.10,2013-03-28 04:08:00,
2013-03-27 23:23:00,29.4,22.0,30.45,SW,218,0.0,0.0,73,0.00,,,0.00,weatherlink.com 1.10,2013-03-28 04:23:00,
2013-03-27 23:38:00,29.1,22.0,30.46,SW,218,0.0,0.0,75,0.00,,,0.00,weatherlink.com 1.10,2013-03-28 04:38:00,
2013-03-27 23:53:00,28.8,22.0,30.46,SW,218,0.0,0.0,75,0.00,,,0.00,weatherlink.com 1.10,2013-03-28 04:53:00,